• In Netherlands
  • List of Countries
  • For 7 days
  • Water Temperature
  • Satellite Maps
  • Weather Map
  • Weather Widgets
  • user-avatar
    Login

    Hourly Weather Korçe

    Today, 18 August, Friday

    Time Temperature Precipitation Wind Pressure Humidity
    00:00 +18°C° 0 mm 2 mps 668 mmHg 50%
    01:00 +17°C° 0 mm 2 mps 668 mmHg 51%
    02:00 +17°C° 0 mm 2 mps 668 mmHg 51%
    03:00 +16°C° 0 mm 2 mps 668 mmHg 52%
    04:00 +16°C° 0 mm 2 mps 668 mmHg 53%
    05:00 +18°C° 0 mm 2 mps 669 mmHg 50%
    06:00 +19°C° 0 mm 2 mps 669 mmHg 47%
    07:00 +21°C° 0 mm 2 mps 670 mmHg 43%
    08:00 +24°C° 0 mm 2 mps 670 mmHg 39%
    09:00 +26°C° 0 mm 2 mps 671 mmHg 34%
    10:00 +28°C° 0 mm 2 mps 671 mmHg 29%
    11:00 +28°C° 0 mm 2 mps 671 mmHg 27%
    12:00 +29°C° 0 mm 2 mps 671 mmHg 26%
    13:00 +30°C° 0 mm 2 mps 671 mmHg 24%
    14:00 +30°C° 0 mm 2 mps 671 mmHg 25%
    15:00 +29°C° 0 mm 3 mps 671 mmHg 26%
    16:00 +29°C° 0 mm 3 mps 670 mmHg 27%
    17:00 +26°C° 0 mm 2 mps 670 mmHg 33%
    18:00 +24°C° 0 mm 2 mps 669 mmHg 39%
    19:00 +22°C° 0 mm 1 mps 669 mmHg 45%
    20:00 +21°C° 0 mm 1 mps 669 mmHg 47%
    21:00 +20°C° 0 mm 1 mps 669 mmHg 49%
    22:00 +19°C° 0 mm 1 mps 669 mmHg 51%
    23:00 +19°C° 0 mm 1 mps 669 mmHg 51%

    Tomorrow, 19 August, Saturday

    Time Temperature Precipitation Wind Pressure Humidity
    00:00 +19°C° 0 mm 1 mps 669 mmHg 51%
    01:00 +18°C° 0 mm 1 mps 669 mmHg 51%
    02:00 +18°C° 0 mm 1 mps 668 mmHg 51%
    03:00 +18°C° 0 mm 1 mps 668 mmHg 52%
    04:00 +18°C° 0 mm 1 mps 668 mmHg 52%
    05:00 +19°C° 0 mm 1 mps 669 mmHg 49%
    06:00 +21°C° 0 mm 1 mps 669 mmHg 45%
    07:00 +23°C° 0 mm 1 mps 670 mmHg 42%
    08:00 +25°C° 0 mm 1 mps 670 mmHg 37%
    09:00 +27°C° 0 mm 1 mps 671 mmHg 33%
    10:00 +29°C° 0 mm 1 mps 671 mmHg 28%
    11:00 +30°C° 0 mm 1 mps 671 mmHg 27%
    12:00 +30°C° 0 mm 2 mps 671 mmHg 26%
    13:00 +31°C° 0 mm 2 mps 670 mmHg 25%
    14:00 +30°C° 0 mm 3 mps 670 mmHg 27%
    15:00 +29°C° 0 mm 3 mps 670 mmHg 29%
    16:00 +28°C° 0 mm 3 mps 669 mmHg 31%
    17:00 +26°C° 0 mm 2 mps 669 mmHg 36%
    18:00 +24°C° 0 mm 2 mps 669 mmHg 41%
    19:00 +22°C° 0 mm 1 mps 668 mmHg 46%
    20:00 +21°C° 0 mm 1 mps 668 mmHg 48%
    21:00 +20°C° 0 mm 1 mps 668 mmHg 50%
    22:00 +19°C° 0 mm 1 mps 668 mmHg 52%
    23:00 +19°C° 0 mm 1 mps 668 mmHg 53%

    Day after tomorrow, 20 August, Sunday

    Time Temperature Precipitation Wind Pressure Humidity
    00:00 +19°C° 0 mm 1 mps 668 mmHg 53%
    01:00 +18°C° 0 mm 1 mps 668 mmHg 53%
    02:00 +18°C° 0 mm 1 mps 667 mmHg 53%
    03:00 +18°C° 0 mm 1 mps 667 mmHg 52%
    04:00 +16°C° 0 mm 1 mps 667 mmHg 52%
    05:00 +19°C° 0 mm 1 mps 667 mmHg 47%
    06:00 +21°C° 0 mm 1 mps 668 mmHg 43%
    07:00 +23°C° 0 mm 1 mps 668 mmHg 38%
    08:00 +25°C° 0 mm 1 mps 669 mmHg 35%
    09:00 +27°C° 0 mm 1 mps 670 mmHg 31%
    10:00 +29°C° 0 mm 1 mps 670 mmHg 27%
    11:00 +29°C° 0 mm 1 mps 670 mmHg 27%
    12:00 +30°C° 0 mm 2 mps 669 mmHg 26%
    13:00 +30°C° 0 mm 2 mps 669 mmHg 26%
    14:00 +29°C° 0 mm 2 mps 669 mmHg 29%
    15:00 +28°C° 0 mm 2 mps 668 mmHg 32%
    16:00 +27°C° 0 mm 2 mps 668 mmHg 35%
    17:00 +26°C° 0 mm 2 mps 668 mmHg 40%
    18:00 +24°C° 0 mm 2 mps 667 mmHg 46%
    19:00 +22°C° 0 mm 1 mps 667 mmHg 51%
    20:00 +21°C° 0 mm 1 mps 667 mmHg 55%
    21:00 +20°C° 0 mm 1 mps 667 mmHg 59%
    22:00 +19°C° 0 mm 1 mps 667 mmHg 63%
    23:00 +19°C° 0 mm 1 mps 667 mmHg 64%

    21 August, Monday

    Time Temperature Precipitation Wind Pressure Humidity
    00:00 +18°C° 0 mm 1 mps 666 mmHg 65%
    01:00 +18°C° 0 mm 1 mps 666 mmHg 67%
    02:00 +16°C° 0.2 mm 1 mps 666 mmHg 69%
    03:00 +16°C° 0.2 mm 1 mps 666 mmHg 71%
    04:00 +16°C° 0.2 mm 1 mps 666 mmHg 73%
    05:00 +18°C° 0.2 mm 1 mps 666 mmHg 70%
    06:00 +19°C° 0.2 mm 1 mps 667 mmHg 66%
    07:00 +19°C° 0.2 mm 2 mps 667 mmHg 63%
    08:00 +21°C° 0.3 mm 2 mps 668 mmHg 57%
    09:00 +24°C° 0.3 mm 2 mps 668 mmHg 51%
    10:00 +25°C° 0.3 mm 2 mps 669 mmHg 45%
    11:00 +26°C° 0.4 mm 2 mps 668 mmHg 43%
    12:00 +26°C° 0.4 mm 2 mps 668 mmHg 42%
    13:00 +27°C° 0.4 mm 3 mps 668 mmHg 41%
    14:00 +26°C° 0.3 mm 2 mps 668 mmHg 43%
    15:00 +25°C° 0.3 mm 2 mps 667 mmHg 46%
    16:00 +25°C° 0.3 mm 2 mps 667 mmHg 48%
    17:00 +23°C° 0.1 mm 2 mps 667 mmHg 52%
    18:00 +21°C° 0.1 mm 2 mps 667 mmHg 56%
    19:00 +19°C° 0.1 mm 2 mps 667 mmHg 60%
    20:00 +18°C° 0 mm 2 mps 667 mmHg 63%
    21:00 +17°C° 0 mm 2 mps 667 mmHg 66%
    22:00 +16°C° 0 mm 2 mps 667 mmHg 69%
    23:00 +16°C° 0 mm 2 mps 667 mmHg 68%

    22 August, Tuesday

    Time Temperature Precipitation Wind Pressure Humidity
    00:00 +15°C° 0 mm 2 mps 667 mmHg 66%
    01:00 +15°C° 0 mm 2 mps 667 mmHg 65%
    02:00 +14°C° 0 mm 2 mps 667 mmHg 65%
    03:00 +14°C° 0 mm 2 mps 667 mmHg 64%
    04:00 +14°C° 0 mm 2 mps 667 mmHg 64%
    05:00 +15°C° 0 mm 2 mps 667 mmHg 59%
    06:00 +16°C° 0 mm 2 mps 668 mmHg 55%
    07:00 +17°C° 0 mm 2 mps 668 mmHg 50%
    08:00 +19°C° 0 mm 2 mps 669 mmHg 45%
    09:00 +21°C° 0 mm 2 mps 669 mmHg 39%
    10:00 +24°C° 0 mm 2 mps 670 mmHg 34%
    11:00 +25°C° 0 mm 2 mps 670 mmHg 32%
    12:00 +26°C° 0 mm 2 mps 670 mmHg 29%
    13:00 +27°C° 0 mm 2 mps 670 mmHg 27%
    14:00 +27°C° 0 mm 2 mps 670 mmHg 27%
    15:00 +27°C° 0 mm 3 mps 670 mmHg 26%
    16:00 +26°C° 0 mm 3 mps 669 mmHg 26%
    17:00 +24°C° 0 mm 2 mps 669 mmHg 30%
    18:00 +20°C° 0 mm 2 mps 669 mmHg 35%
    19:00 +19°C° 0 mm 1 mps 668 mmHg 39%
    20:00 +18°C° 0 mm 1 mps 668 mmHg 40%
    21:00 +16°C° 0 mm 1 mps 668 mmHg 40%
    22:00 +16°C° 0 mm 1 mps 668 mmHg 41%
    23:00 +15°C° 0 mm 1 mps 668 mmHg 41%

    23 August, Wednesday

    Time Temperature Precipitation Wind Pressure Humidity
    00:00 +15°C° 0 mm 1 mps 668 mmHg 40%
    01:00 +14°C° 0 mm 2 mps 668 mmHg 40%
    02:00 +14°C° 0 mm 2 mps 668 mmHg 41%
    03:00 +14°C° 0 mm 1 mps 668 mmHg 42%
    04:00 +14°C° 0 mm 1 mps 668 mmHg 43%
    05:00 +15°C° 0 mm 1 mps 669 mmHg 41%
    06:00 +18°C° 0 mm 1 mps 669 mmHg 39%
    07:00 +20°C° 0 mm 1 mps 670 mmHg 38%
    08:00 +22°C° 0 mm 1 mps 671 mmHg 35%
    09:00 +24°C° 0 mm 1 mps 671 mmHg 33%
    10:00 +26°C° 0 mm 1 mps 672 mmHg 30%
    11:00 +27°C° 0 mm 1 mps 672 mmHg 29%
    12:00 +28°C° 0 mm 2 mps 672 mmHg 28%
    13:00 +29°C° 0 mm 2 mps 672 mmHg 27%
    14:00 +28°C° 0 mm 2 mps 671 mmHg 28%
    15:00 +28°C° 0 mm 3 mps 671 mmHg 30%
    16:00 +27°C° 0 mm 3 mps 671 mmHg 32%
    17:00 +25°C° 0 mm 2 mps 670 mmHg 40%
    18:00 +21°C° 0 mm 2 mps 670 mmHg 47%
    19:00 +20°C° 0 mm 1 mps 669 mmHg 55%
    20:00 +19°C° 0 mm 1 mps 670 mmHg 57%
    21:00 +18°C° 0 mm 1 mps 670 mmHg 59%
    22:00 +18°C° 0 mm 1 mps 670 mmHg 62%
    23:00 +16°C° 0 mm 1 mps 669 mmHg 61%
    Show more